TimeMST,TemperatureF,Dew PointF,Humidity,Sea Level PressureIn,VisibilityMPH,Wind Direction,Wind SpeedMPH,Gust SpeedMPH,PrecipitationIn,Events,Conditions,WindDirDegrees,DateUTC
12:53 AM,34.0,18.0,52,29.60,10.0,West,20.7,25.3,N/A,,Overcast,260,2012-12-08 07:53:00
1:53 AM,32.0,21.9,66,29.67,8.0,NW,21.9,39.1,0.00,Snow,Light Snow,310,2012-12-08 08:53:00
1:56 AM,28.4,24.8,86,29.60,4.0,NNW,20.7,35.7,0.00,Snow,Light Snow,330,2012-12-08 08:56:00
1:59 AM,28.4,23.0,80,29.60,1.8,NNW,25.3,33.4,0.00,Snow,Light Snow,330,2012-12-08 08:59:00
2:01 AM,28.4,23.0,80,29.60,1.0,NNW,24.2,33.4,0.00,Snow,Light Snow,330,2012-12-08 09:01:00
2:03 AM,28.4,23.0,80,29.60,0.8,NNW,19.6,33.4,0.00,Snow,Light Snow,330,2012-12-08 09:03:00
2:11 AM,26.6,24.8,93,29.60,0.2,NW,12.7,25.3,0.01,Fog-Snow,Heavy Snow,320,2012-12-08 09:11:00
2:35 AM,28.4,24.8,86,29.61,1.2,West,16.1,-,0.02,Snow,Light Snow,270,2012-12-08 09:35:00
2:38 AM,28.4,24.8,86,29.61,2.5,WSW,12.7,-,0.02,Snow,Light Snow,250,2012-12-08 09:38:00
2:45 AM,28.4,24.8,86,29.61,6.0,WSW,11.5,-,0.02,Snow,Light Snow,250,2012-12-08 09:45:00
2:53 AM,28.0,23.0,81,29.69,7.0,WSW,17.3,-,0.02,Snow,Light Snow,240,2012-12-08 09:53:00
4:53 AM,28.0,12.9,53,29.72,10.0,WSW,19.6,26.5,0.00,,Scattered Clouds,250,2012-12-08 11:53:00
5:09 AM,24.8,12.2,59,29.65,1.8,West,32.2,46.0,0.00,Snow,Light Snow,270,2012-12-08 12:09:00
5:18 AM,26.6,10.4,51,29.66,3.0,WSW,26.5,38.0,0.00,Snow,Light Snow,250,2012-12-08 12:18:00
5:40 AM,24.8,12.2,59,29.66,2.5,WSW,24.2,39.1,0.00,Snow,Light Snow,250,2012-12-08 12:40:00
5:53 AM,25.0,10.0,53,29.75,2.0,WSW,34.5,42.6,0.00,,Mostly Cloudy,250,2012-12-08 12:53:00
6:03 AM,23.0,12.2,63,29.65,1.2,WSW,32.2,42.6,0.00,Snow,Light Snow,250,2012-12-08 13:03:00
6:14 AM,24.8,10.4,54,29.68,3.0,West,24.2,43.7,0.00,Snow,Light Snow,260,2012-12-08 13:14:00
6:53 AM,24.1,10.0,55,29.79,4.0,WSW,25.3,39.1,0.00,,Haze,250,2012-12-08 13:53:00
7:53 AM,24.1,12.0,60,29.81,5.0,West,24.2,39.1,0.00,,Overcast,260,2012-12-08 14:53:00
8:53 AM,24.1,12.9,62,29.83,9.0,WSW,27.6,35.7,N/A,,Overcast,250,2012-12-08 15:53:00
9:12 AM,24.8,14.0,64,29.73,2.0,WSW,29.9,41.4,0.00,,Overcast,250,2012-12-08 16:12:00
9:35 AM,24.8,15.8,69,29.74,1.2,WSW,34.5,44.9,0.00,,Overcast,250,2012-12-08 16:35:00
9:45 AM,24.8,15.8,69,29.75,2.0,WSW,32.2,39.1,0.00,,Haze,250,2012-12-08 16:45:00
9:53 AM,24.1,15.1,69,29.86,3.0,West,31.1,39.1,0.00,,Haze,260,2012-12-08 16:53:00
10:10 AM,19.4,12.2,74,29.81,1.5,NW,25.3,28.8,0.00,Snow,Light Snow,310,2012-12-08 17:10:00
10:12 AM,19.4,12.2,74,29.81,1.0,NW,21.9,28.8,0.00,Snow,Light Snow,310,2012-12-08 17:12:00
10:20 AM,19.4,12.2,74,29.81,0.8,NW,23.0,29.9,0.00,Snow,Light Snow,310,2012-12-08 17:20:00
10:31 AM,19.4,12.2,74,29.82,0.5,WNW,20.7,28.8,0.00,Snow,Snow,300,2012-12-08 17:31:00
10:53 AM,19.0,12.9,77,29.96,0.8,WNW,19.6,27.6,0.00,Snow,Light Snow,300,2012-12-08 17:53:00
11:15 AM,19.4,14.0,80,29.87,0.2,NW,17.3,26.5,0.00,Snow,Heavy Snow,320,2012-12-08 18:15:00
11:22 AM,17.6,12.2,79,29.88,0.2,NW,13.8,-,0.00,Snow,Heavy Snow,320,2012-12-08 18:22:00
11:53 AM,18.0,12.9,81,29.99,0.2,NNW,12.7,23.0,0.01,Snow,Heavy Snow,330,2012-12-08 18:53:00
12:24 PM,19.4,12.2,74,29.89,0.8,NW,12.7,-,0.00,Snow,Light Snow,310,2012-12-08 19:24:00
12:53 PM,18.0,12.9,81,30.02,0.8,West,10.4,-,0.01,Snow,Light Snow,280,2012-12-08 19:53:00
12:57 PM,17.6,12.2,79,29.90,1.2,West,10.4,-,0.00,Snow,Light Snow,270,2012-12-08 19:57:00
1:05 PM,17.6,12.2,79,29.90,0.8,West,12.7,-,0.00,Snow,Light Snow,270,2012-12-08 20:05:00
1:37 PM,19.4,12.2,74,29.91,1.0,West,10.4,-,0.00,Snow,Light Snow,280,2012-12-08 20:37:00
1:48 PM,19.4,12.2,74,29.91,1.5,West,9.2,-,0.00,Snow,Light Snow,280,2012-12-08 20:48:00
1:53 PM,19.0,12.0,74,30.04,1.5,West,10.4,-,0.00,Snow,Light Snow,280,2012-12-08 20:53:00
2:30 PM,19.4,12.2,74,29.93,3.0,West,8.1,-,0.00,Snow,Light Snow,260,2012-12-08 21:30:00
2:43 PM,19.4,10.4,68,29.93,6.0,WSW,10.4,-,0.00,,Haze,240,2012-12-08 21:43:00
2:53 PM,19.0,10.9,71,30.08,8.0,WSW,10.4,-,0.00,,Overcast,240,2012-12-08 21:53:00
3:53 PM,18.0,8.1,65,30.12,10.0,West,10.4,-,N/A,,Overcast,280,2012-12-08 22:53:00
4:53 PM,17.1,6.1,62,30.16,10.0,West,10.4,-,N/A,,Overcast,270,2012-12-08 23:53:00
5:53 PM,16.0,6.1,65,30.19,10.0,West,9.2,-,N/A,,Overcast,260,2012-12-09 00:53:00
6:53 PM,16.0,5.0,62,30.22,10.0,West,10.4,-,N/A,,Mostly Cloudy,270,2012-12-09 01:53:00
7:53 PM,16.0,7.0,68,30.24,10.0,West,8.1,-,N/A,,Overcast,260,2012-12-09 02:53:00
8:53 PM,16.0,7.0,68,30.26,10.0,NW,5.8,-,0.00,,Overcast,320,2012-12-09 03:53:00
9:53 PM,14.0,8.1,77,30.29,3.0,NE,9.2,-,0.00,Snow,Light Snow,40,2012-12-09 04:53:00
9:55 PM,14.0,8.6,79,30.11,2.5,ENE,10.4,-,0.00,Snow,Light Snow,60,2012-12-09 04:55:00
10:36 PM,12.2,8.6,85,30.11,2.0,East,10.4,-,0.00,Snow,Light Snow,80,2012-12-09 05:36:00
10:53 PM,12.9,8.1,81,30.31,3.0,East,9.2,-,0.00,Snow,Light Snow,80,2012-12-09 05:53:00
11:24 PM,12.2,8.6,85,30.12,2.5,East,9.2,-,0.00,Snow,Light Snow,90,2012-12-09 06:24:00
11:33 PM,12.2,8.6,85,30.12,3.0,East,6.9,-,0.00,Snow,Light Snow,90,2012-12-09 06:33:00
11:53 PM,12.0,7.0,80,30.33,4.0,East,5.8,-,0.00,Snow,Light Snow,90,2012-12-09 06:53:00